Regional Weather Roundup
Issued by NWS Northern Indiana

Home | Current Version | Previous Version | Graphics & Text | Print | Product List | Glossary On
Versions: 1 2 3 4 5 6 7 8 9 10 11 12 13 14 15 16 17 18 19 20 21 22 23 24 25 26 27 28 29 30 31 32 33 34 35 36 37 38 39 40 41 42 43 44 45 46 47 48 49 50
455
ASUS43 KIWX 232010
RWRIWX

KIWX WEATHER ROUNDUP
NATIONAL WEATHER SERVICE NORTHERN INDIANA
300 PM EST MON JAN 23 2017

NOTE: "FAIR" INDICATES FEW OR NO CLOUDS BELOW 12,000 FEET WITH NO
SIGNIFICANT WEATHER AND/OR OBSTRUCTIONS TO VISIBILITY.

* THESE STATIONS ARE NOT UNDER NWS QUALITY CONTROL. THEY ALSO MAY NOT
  REPORT WEATHER SUCH AS PRECIPITATION OR FOG.

INZ001>027-232100-
NORTHERN INDIANA

CITY           SKY/WX    TMP DP  RH WIND       PRES   REMARKS
GARY*          CLOUDY    41  37  87 NW14      29.74F FOG
VALPARAISO     CLOUDY    41  37  86 N13G21    29.71S
LAPORTE*       CLOUDY    37  37  97 N14G24    29.71R
KNOX*          CLOUDY    37  27  65 N15       29.70S
SOUTH BEND     CLOUDY    38  37  97 N13       29.70R FOG
ELKHART*       CLOUDY    39  37  93 NW12      29.68S FOG
GOSHEN         CLOUDY    41  39  93 N14       29.66S FOG
ROCHESTER*     CLOUDY    41  41 100 NW13      29.68S FOG
WARSAW*        LGT RAIN  41  41 100 N9        29.66S
FORT WAYNE     LGT RAIN  45  42  89 N8        29.63R
PERU/GRISSOM   DRIZZLE   41  41 100 NW15      29.65R FOG
MARION*        CLOUDY    43  43 100 N12       29.64S FOG

$$
INZ028>050-232100-
CENTRAL INDIANA

CITY           SKY/WX    TMP DP  RH WIND       PRES   REMARKS
LAFAYETTE      CLOUDY    41  37  86 NW17G23   29.69S
KOKOMO*        CLOUDY    41  39  93 NW14      29.67R FOG
MUNCIE*        CLOUDY    46  44  93 N18       29.60S FOG
INDIANAPOLIS   CLOUDY    42  40  92 N16       29.65S FOG

$$
MIZ043>046-050>051-056>058-064>065-071>073-077>080-232100-
SOUTHWEST LOWER MICHIGAN

CITY           SKY/WX    TMP DP  RH WIND       PRES   REMARKS
BATTLE CREEK   CLOUDY    42  41  96 N9        29.66S FOG
BENTON HARBOR  CLOUDY    40  37  89 N7        29.71S
COLDWATER*     MIX PCPN  41  41 100 N5        29.64S
HILLSDALE*     LGT RAIN  41  41 100 N7        29.62S
HOLLAND        CLOUDY    41  36  82 NW6       29.71R
GRAND RAPIDS   DRIZZLE   42  39  89 N6        29.68F
KALAMAZOO      CLOUDY    42  40  92 N8        29.68R FOG
STURGIS*       CLOUDY    41  41 100 N10       29.65R FOG
THREE RIVERS*  FOG       42  42  99 N8        29.67S VSB 1

$$
OHZ001>008-015>018-024>025-232100-
NORTHWEST OHIO

CITY           SKY/WX    TMP DP  RH WIND       PRES   REMARKS
DEFIANCE       LGT RAIN  42  41  96 N8        29.63S
FINDLAY        CLOUDY    42  39  89 N13       29.58S FOG
TOLEDO EXPRESS LGT RAIN  42  42 100 NE5       29.63R
TOLEDO METCALF CLOUDY    40  39  97 NE10      29.64R
LIMA           LGT RAIN  41  41 100 N10       29.58S FOG

$$
AND FOR LAKE MICHIGAN COASTAL AND OPEN LAKE BUOY OBSERVATIONS

STATION/POSITION TEMP    WIND        PRES    VSBY  WAVE
                 AIR SEA DIR/SP/G                  HT/PER
                 (F)     (DEG/KT/KT) (MB)    (MI)  (FT/S)
CALUMET HARBOR    37     330/  8/ 12 1006.4F
MICHIGAN CITY     36     330/ 12/ 13   N/A
BURNS HARBOR      36     340/  7/  9 1007.1F
SAINT JOSEPH      38     350/  8/ 11 1006.4

$$
&&




USA.gov is the U.S. government's official web portal to all federal, state and local government web resources and services.